Airfield :
LOGIN :

Register | Disclaimer

   EN    FR    IT 

 










Legend :    VFR   Marginal VFR   IFR   Intensive IFR   Very Intensive IFR
Visi :
Ceiling :
>= 8 km
>= 3000ft
5 to 8 km
1000 to 3000 ft
1500m to 5 km
500 to 1000 ft
800 to 1500m
200 to 500 ft
< 800m
< 200 ft
Symbols :   Thunderstorms  Fog  Heavy snow  Heavy precipitations  Wind > 20 kt
SIGMETs :     Misc.  Thunderstorms  Icing  Turbulence  Mountain Waves  Volcanic Ashes







- Airport Elevation : 1411 ft
- IATA code : GVA


LSGG - Genève Cointrin

CURRENT METAR :
  • 252320Z AUTO 02014KT 340V050 9999 FEW033 M05/M12 Q1015 NOSIG

EXPIRED METARs :
  • 252250Z AUTO 03013KT 9999 FEW033 M04/M12 Q1015 NOSIG
  • 252220Z 03014G26KT 9999 FEW032 M04/M12 Q1015 NOSIG
  • 252150Z 03015KT 9999 FEW035 M04/M12 Q1015 NOSIG
  • 252120Z 04019KT 9999 FEW035 M04/M12 Q1015 NOSIG
  • 252050Z 03016KT 350V070 9999 FEW035 M04/M12 Q1015 NOSIG

TAF TAF LSGG
Valid from the 25 at 21:00 until the 27 at 03:00 UTC


252025Z 2521/2703 05020G35KT 9999 FEW035 TXM04/2615Z TNM06/2606Z
ATIS : +41 22 417 40 81
No reported NOTAMs for that airfield.



MET'MAP, your aeronautical weather chart ! - Copyright ORBIFLY December 2007 - Disclaimer

ORBIFLY MET'MAP TEAM :

Programming & Development : Alexandra Zaïnal
Concept & Development : Baudouin d'Aumeries
Co-Development & Prog : Marc-Olivier Méhu
Technical & hardware support : Manuel Goepfert

Contact : metmap@orbifly.com




SOURCES & CREDITS :

   NOAA